Location: Clarion
(42.7316°N, 93.7330°W)
Time: 09:31:39
(UTC+00:00)

Meteor 2-3 Rocket - Pass Details

Date: 22 April 2026
Orbit: 845 x 880 km, 81.2° (Epoch: 17 May)

Event Time Altitude Azimuth Distance (km) Brightness Sun altitude
Rises 05:04:52 0° 347° (NNW) 3,418 7.9 -32.9°
Reaches altitude 10° 05:07:18 10° 346° (NNW) 2,477 7.0 -33.0°
Enters shadow 05:11:25 49° 329° (NNW) 1,080 4.5 -33.2°
